Погода в Михайловке

Россия / Республика Бурятия     50°24′32″N   104°09′24″E
темп.,
°C
ветер,
м/с
пор.,
м/с
влажн.,
%
обл.,
%
осадки,
мм/ч
давл.,
гПа
погр.,
м
28 июня, вт
вт2823:00+17с11714 0.0 100513
02:00+15сз11762 0.0 100611
05:00+13з11832 0.0 100611
08:00+20юз12599 0.0 1004258
11:00+27юз23360 0.0 1002913
14:00+32зюз2420100 0.0 9992890
17:00+32юв442012 0.0 9973251
20:00+25вюв11444 0.0 99916
29 июня, ср
ср2923:00+18с11593 0.0 100116
02:00+16ссв3675100 0.1 1005194
05:00+13ссв1293100 0.0 100642
08:00+18всв1275100 0.1 1007385
11:00+23в3352100 0.1 10051145
14:00+25всв444880 0.1 10041238
17:00+26в564767 0.0 10011089
20:00+24в48581 0.0 1002738
30 июня, чт
чт3023:00+17зсз3390100 1.1 100363
02:00+14ююв1198100 7.3 100520
05:00+13з229751 0.1 100549
08:00+16зюз228913 0.1 1005260
11:00+22юз345498 0.0 10041306
14:00+27зюз34365 0.0 10021993
17:00+28зюз34262 0.0 10012450
20:00+24зюз11446 0.0 100212
1 июля, пт
пт123:00+17ссв11550 0.0 100417
02:00+14сз116899 0.0 100513
05:00+13зсз117834 0.0 100611
08:00+19юз115439 0.0 1005228
11:00+27ю02320 0.0 1003977
14:00+31зсз02211 0.0 10002537
17:00+31в342393 0.0 9982341
20:00+24ссв2246100 0.0 99829
2 июля, сб
сб223:00+20всв115391 0.0 100012
02:00+17ссв11657 0.0 100112
05:00+15сз117080 0.0 100111
08:00+21юз1153100 0.0 1000210
11:00+26юз2239100 0.0 998618
14:00+27зсз343885 0.1 9971037
17:00+28з6103089 0.0 9972286
20:00+23ююв1149100 0.0 99711